sat.trackr.live / text

‹ back to catalog

GAOFEN-1 04

NORAD 43262 · 2018-031D

PAYLOAD ACTIVE UNKNOWN

§ Identity

Operator
Country
PRC
Launch date
2018-03-31
Launch site
TAISC
Launch vehicle
Mass (kg)
RCS (m²)

Purposes: earth_obs

External: N2YO · Heavens-Above · Gunter

§ Orbital elements

Epoch: 2026-05-25T05:02:53.966976Z

Period
97.53 min
Inclination
98.0535°
Eccentricity
0.0001989
Mean motion
14.76440749 rev/d
Perigee alt
639.2 km
Apogee alt
642.0 km
Semi-major
7,018.7 km
B*
1.3162e-4
RAAN
207.8486°
Arg perigee
109.4390°
Mean anomaly
250.7034°
Rev number
43,929

§ Raw data

GAOFEN-1 041 43262U 18031D   26145.21034684  .00000864  00000+0  13162-3 0  99992 43262  98.0535 207.8486 0001989 109.4390 250.7034 14.76440749439291

JSON: /api/v1/satellites/43262 · /tle

For live sub-satellite position, see the globe view (requires WebGL).

§ Visibility from observer

Set your observer location to see the next 7 days of passes ≥ 10°. The values pass through the URL so the page stays shareable.

No JS? Fill the form by hand. The geolocation button needs JavaScript.